TianYi 6 (43158 NORAD) Tracking and Keplerian Element Data

This shows tracking and keplerian element data for the satellite.

Feedback or suggestion? Click here.




ElementValue
Catalog43158
NameTianYi 6
Epoch Orbit6857
Epoch Day108.81875686
Epoch Year2019
RAAN182.0882
Inclination97.4882
Eccentricity0.0013815
Argument of Perigee165.8082
Mean Anonmoly319.2033
Mean Motion15.10147004
Decay Rate1.142E-05
L11 43158U 18008D 19108.81875686 .00001142 00000-0 73760-4 0 9991
L22 43158 97.4882 182.0882 0013815 165.8082 319.2033 15.10147004 68578

Live tracking and technical data element details for TianYi 6 (NORAD 43158). TianYi 6 can be tracked NOW for your location showing map with azimuth and elevation plus other details from your city location.

Track the satellite on the map from your city or location and see movement details for azimuth, elevation, latitude, longitude, range, height, and movement on the map or in text.







IsCatalogInMostPopularTable: catalog: 43158, numindb: 193
Update: records affected: 1



GetName: 43158 TianYi 6

Hit Count: updated at: Thu, 25 Apr 2019 19:41:50 GMT